User: anonymous
Location: Thompson
(55.7500°N, 97.8670°W)
Time: 13:09:38
(UTC-05:00)
Language:

Cosmos 1833 Rocket - Orbit

View from above orbital plane
View from above orbital plane
View from above satellite
View from above satellite

Ground track
Ground track

The orbit data is extracted from the following two-line orbital elements,

1 17590U 87027B   14264.05167772 -.00000278  00000-0 -11512-3 0  7853
2 17590 071.0019 095.8888 0004834 001.3172 358.7963 14.16652813422478
Epoch (UTC): 21 September 2014 01:14:24
Eccentricity: 0.0004834
inclination: 71.0019°
perigee height: 833 km
apogee height: 840 km
right ascension of ascending node: 95.8888°
argument of perigee: 1.3172°
revolutions per day: 14.16652813
mean anomaly at epoch: 358.7963°
orbit number at epoch: 42247

The dashed part of the orbit path shows where the satellite is in the earth's shadow,  

DLR